AirNav   Everest Fuels
 
 558 users online  

68S Davenport Airport
Davenport, Washington, USA

GOING TO DAVENPORT?


FAA INFORMATION EFFECTIVE 11 AUGUST 2022

Location

FAA Identifier: 68S
Lat/Long: 47-39-07.4160N 118-10-25.5860W
47-39.123600N 118-10.426433W
47.6520600,-118.1737739
(estimated)
Elevation: 2426.9 ft. / 739.7 m (surveyed)
Variation: 20E (1985)
From city: 1 mile W of DAVENPORT, WA
Time zone: UTC -7 (UTC -8 during Standard Time)
Zip code: 99122

Airport Operations

Airport use: Open to the public
Activation date: 12/1945
Control tower: no
ARTCC: SEATTLE CENTER
FSS: SEATTLE FLIGHT SERVICE STATION
NOTAMs facility: SEA (NOTAM-D service available)
Attendance: ON CALL
Wind indicator: lighted
Segmented circle: no
Beacon: white-green (lighted land airport)
Operates sunset to sunrise.

Airport Communications

CTAF: 122.9

Nearby radio navigation aids

VOR radial/distance  VOR name  Freq  Var
GEGr262/22.7SPOKANE VORTAC115.5021E

 
NDB name  Hdg/Dist  Freq  Var  ID
DEER PARK222/35.636516EDPY -.. .--. -.--

Airport Services

Fuel available: 100LL
100LL:FUEL 24 HR CREDIT CARD SVC AVBL.
Parking: tiedowns
Airframe service: NONE
Bottled oxygen: NONE
Bulk oxygen: NONE

Runway Information

Runway 6/24

Dimensions: 3260 x 60 ft. / 994 x 18 m
Surface: asphalt, in fair condition
Runway edge lights: medium intensity
Runway edge markings: MARKINGS ARE FADED.
RUNWAY 6  RUNWAY 24
Latitude: 47-39.046833N47-39.200333N
Longitude: 118-10.806667W118-10.046167W
Elevation: 2414.5 ft.2424.0 ft.
Traffic pattern: leftright
Runway heading: 053 magnetic, 073 true233 magnetic, 253 true
Markings: basic, in poor conditionbasic, in poor condition
Touchdown point: yes, no lightsyes, no lights
Obstructions: none37 ft. tree, 1001 ft. from runway, 21:1 slope to clear

Airport Ownership and Management from official FAA records

Ownership: Publicly-owned
Owner: CITY OF DAVENPORT
PO BOX 26
DAVENPORT, WA 99122
Phone 509-725-4352
Manager: STEVE GOEMMEL
P.O. BOX 26
DAVENPORT, WA 99122
Phone 509-725-4352
SJGOEMMEL@CENTURYTEL.NET

Airport Operational Statistics

Aircraft based on the field: 18
Single engine airplanes: 16
Ultralights: 2
    
Aircraft operations: avg 134/week *
71% local general aviation
29% transient general aviation
* for 12-month period ending 31 December 2018

Additional Remarks

MON-FRI 8:00 AM TO 5:00 PM, CALL OFFICE NUMBER, 509-725-4352. AFTER HOURS CALL 509-721-0069.
FOR CD CTC SPOKANE APCH AT 509-742-2522

Instrument Procedures

There are no published instrument procedures at 68S.

Some nearby airports with instrument procedures:

KSKA - Fairchild Air Force Base (21 nm E)
2S8 - Wilbur Airport (24 nm W)
KGEG - Spokane International Airport (26 nm E)
KSFF - Felts Field Airport (34 nm E)
KDEW - Deer Park Airport (35 nm NE)
 
Loc | Ops | Rwys | IFR | FBO | Links
Com | Nav | Svcs | Stats | Notes
Area around 68S (Davenport Airport)
 
Road maps at: MapQuest Bing Google
 
Aerial photo
WARNING: Photo may not be current or correct
Aerial photo of 68S (Davenport Airport)
Photo by David Wyatt
Photo taken 22-Jun-2007
looking northeast down runway 5

Do you have a better or more recent aerial photo of Davenport Airport that you would like to share? If so, please send us your photo.

 
Sectional chart

 
Airport distance calculator
Flying to Davenport Airport? Find the distance to fly.

From to 68S

Sunrise and sunset
Times for 18-Aug-2022
 Local
(UTC-7)
 Zulu
(UTC)
Morning civil twilight05:2012:20
Sunrise05:5312:53
Sunset20:0003:00
Evening civil twilight20:3303:33

Current date and time
Zulu (UTC)  18-Aug-2022 07:25:10
Local (UTC-7)  18-Aug-2022 00:25:10
 
METAR
KSKA 
21nm E 
180658Z AUTO 04003KT 10SM CLR 24/05 A3001 RMK AO2 SLP143 T02400049 $
KGEG 
26nm E 
180653Z 00000KT 10SM CLR 24/06 A3002 RMK AO2 SLP144 T02390056 $
KSFF 
35nm E 
180653Z AUTO 02003KT 10SM CLR 21/10 A3001 RMK AO2 SLP142 T02060100
KDEW 
35nm NE 
180653Z AUTO 33003KT 10SM CLR 18/09 A3002 RMK AO2 SLP148 T01780089
TAF
KSKA 
21nm E 
180300Z 1803/1909 03006KT 9999 FEW180 QNH3002INS BECMG 1817/1818 04012KT 9999 SCT160 QNH2992INS WND 01006KT AFT 1906 TX34/1821Z TN18/1812Z
KGEG 
26nm E 
180543Z 1806/1906 00000KT P6SM FEW090
NOTAMs
Click for the latest NOTAMs
NOTAMs are issued by the DoD/FAA and will open in a separate window not controlled by AirNav.

 

 
 

FBO, Fuel Providers, and Aircraft Ground Support

  
 Business Name 
 
 Contact 
 
 Services / Description 
 
Fuel Prices
 
Comments
  
 Davenport Municipal Airport
509-725-4352
509-725-0152
[web site]
[email]
Aviation fuel, Aircraft parking (ramp or tiedown), Hangar leasing / sales, Courtesy transportation, Pilots lounge / snooze room, Public telephone, Computerized weather, ...
 
Courtesy car  
 
More info about Davenport Municipal Airport
independent
100LL
SS $7.50 
 Updated 10-Aug-2022
 
   1 read write
SS=Self service
Update Fuel Prices
 

Would you like to see your business listed on this page?

 If your business provides an interesting product or service to pilots, flight crews, aircraft, or users of the Davenport Airport, you should consider listing it here.  To start the listing process, click on the button below
 
Add a business
 

Other Pages about Davenport Airport

www.davenportwa.us/index.asp?SEC=13D2F483-532F-4112-A9DB-75D4B32F90A1&Type=B_BASIC
 
Update a link
 
Copyright © AirNav, LLC. All rights reserved. Privacy Policy  Contact